TimeEDT,TemperatureF,Dew PointF,Humidity,Sea Level PressureIn,VisibilityMPH,Wind Direction,Wind SpeedMPH,Gust SpeedMPH,PrecipitationIn,Events,Conditions,WindDirDegrees,DateUTC
12:53 AM,73.0,71.1,93,30.23,10.0,Calm,Calm,-,0.01,,Clear,0,2013-07-17 04:53:00
1:53 AM,71.1,71.1,100,30.23,7.0,Calm,Calm,-,N/A,,Clear,0,2013-07-17 05:53:00
2:53 AM,71.1,70.0,96,30.22,3.0,Calm,Calm,-,N/A,,Clear,0,2013-07-17 06:53:00
2:55 AM,71.6,69.8,94,30.22,1.5,Calm,Calm,-,N/A,,Clear,0,2013-07-17 06:55:00
3:05 AM,71.6,69.8,94,30.22,4.0,Calm,Calm,-,N/A,,Clear,0,2013-07-17 07:05:00
3:53 AM,72.0,71.1,97,30.22,9.0,Calm,Calm,-,N/A,,Clear,0,2013-07-17 07:53:00
4:53 AM,70.0,70.0,100,30.22,6.0,Calm,Calm,-,N/A,,Clear,0,2013-07-17 08:53:00
5:05 AM,69.8,69.8,100,30.22,4.0,Calm,Calm,-,N/A,,Scattered Clouds,0,2013-07-17 09:05:00
5:09 AM,71.6,69.8,94,30.22,1.8,Calm,Calm,-,N/A,,Scattered Clouds,0,2013-07-17 09:09:00
5:18 AM,71.6,69.8,94,30.22,3.0,Calm,Calm,-,N/A,,Scattered Clouds,0,2013-07-17 09:18:00
5:28 AM,71.6,69.8,94,30.22,8.0,Calm,Calm,-,N/A,,Mostly Cloudy,0,2013-07-17 09:28:00
5:38 AM,71.6,69.8,94,30.23,10.0,Calm,Calm,-,N/A,,Partly Cloudy,0,2013-07-17 09:38:00
5:53 AM,71.1,70.0,96,30.22,10.0,Calm,Calm,-,N/A,,Clear,0,2013-07-17 09:53:00
6:53 AM,70.0,69.1,97,30.22,8.0,Calm,Calm,-,0.01,,Clear,0,2013-07-17 10:53:00
7:53 AM,75.0,72.0,90,30.23,10.0,Calm,Calm,-,N/A,,Clear,0,2013-07-17 11:53:00
8:53 AM,80.1,73.9,81,30.25,7.0,North,3.5,-,N/A,,Clear,350,2013-07-17 12:53:00
9:53 AM,84.0,73.0,69,30.24,10.0,NNW,4.6,-,N/A,,Clear,340,2013-07-17 13:53:00
10:53 AM,88.0,73.0,61,30.23,10.0,WNW,4.6,-,N/A,,Clear,300,2013-07-17 14:53:00
11:53 AM,91.0,72.0,53,30.22,10.0,North,4.6,-,N/A,,Clear,360,2013-07-17 15:53:00
12:53 PM,91.0,71.1,52,30.21,10.0,Calm,Calm,-,N/A,,Partly Cloudy,0,2013-07-17 16:53:00
1:53 PM,93.0,70.0,47,30.19,10.0,Calm,Calm,-,N/A,,Clear,0,2013-07-17 17:53:00
2:53 PM,91.9,71.1,50,30.15,10.0,Variable,3.5,-,N/A,,Scattered Clouds,0,2013-07-17 18:53:00
3:43 PM,93.2,71.6,49,30.13,10.0,West,4.6,-,N/A,Thunderstorm,Scattered Clouds,280,2013-07-17 19:43:00
3:53 PM,91.0,70.0,50,30.12,10.0,SSW,5.8,-,N/A,Thunderstorm,Scattered Clouds,210,2013-07-17 19:53:00
4:04 PM,91.4,69.8,49,30.12,10.0,Calm,Calm,-,N/A,,Scattered Clouds,0,2013-07-17 20:04:00
4:24 PM,89.6,75.2,62,30.11,10.0,South,3.5,-,N/A,Thunderstorm,Scattered Clouds,180,2013-07-17 20:24:00
4:53 PM,81.0,70.0,69,30.12,10.0,East,17.3,35.7,0.00,Rain-Thunderstorm,Light Rain,90,2013-07-17 20:53:00
5:13 PM,75.2,71.6,89,30.15,1.5,ENE,17.3,35.7,0.04,Rain-Thunderstorm,Heavy Thunderstorms and Rain,60,2013-07-17 21:13:00
5:19 PM,75.2,71.6,89,30.13,0.8,Calm,Calm,-,0.23,Rain-Thunderstorm,Heavy Thunderstorms and Rain,0,2013-07-17 21:19:00
5:23 PM,77.0,71.6,83,30.13,1.0,WSW,6.9,-,0.28,Rain-Thunderstorm,Thunderstorms and Rain,240,2013-07-17 21:23:00
5:27 PM,77.0,69.8,78,30.13,3.0,Calm,Calm,-,0.28,Rain-Thunderstorm,Light Thunderstorms and Rain,0,2013-07-17 21:27:00
5:41 PM,75.2,69.8,83,30.14,10.0,Calm,Calm,-,0.28,Thunderstorm,Mostly Cloudy,0,2013-07-17 21:41:00
5:53 PM,75.0,72.0,90,30.14,10.0,ESE,6.9,-,0.28,Thunderstorm,Partly Cloudy,120,2013-07-17 21:53:00
6:03 PM,73.4,71.6,94,30.14,9.0,SSE,4.6,-,0.00,Rain,Light Rain,160,2013-07-17 22:03:00
6:53 PM,72.0,70.0,93,30.10,10.0,East,3.5,-,0.00,Rain,Light Rain,80,2013-07-17 22:53:00
7:53 PM,73.0,71.1,93,30.16,10.0,Calm,Calm,-,0.00,,Scattered Clouds,0,2013-07-17 23:53:00
8:48 PM,73.4,71.6,94,30.17,8.0,SSE,8.1,-,0.01,Thunderstorm,Mostly Cloudy,160,2013-07-18 00:48:00
8:53 PM,73.0,70.0,90,30.16,9.0,South,6.9,-,0.01,Thunderstorm,Overcast,170,2013-07-18 00:53:00
9:08 PM,73.4,69.8,88,30.17,10.0,South,4.6,-,N/A,Thunderstorm,Thunderstorm,190,2013-07-18 01:08:00
9:37 PM,73.4,71.6,94,30.18,10.0,West,5.8,-,0.00,,Mostly Cloudy,260,2013-07-18 01:37:00
9:53 PM,73.0,71.1,93,30.18,10.0,West,5.8,-,0.00,,Mostly Cloudy,280,2013-07-18 01:53:00
10:53 PM,73.9,72.0,93,30.18,10.0,Calm,Calm,-,N/A,,Partly Cloudy,0,2013-07-18 02:53:00
11:51 PM,71.6,71.6,100,30.21,9.0,Calm,Calm,-,0.01,Rain-Thunderstorm,Light Rain,0,2013-07-18 03:51:00
11:53 PM,72.0,71.1,97,30.20,10.0,Calm,Calm,-,0.01,Thunderstorm,Overcast,0,2013-07-18 03:53:00